User: anonymous   Login
Location: Ca�n Batista
(41.4099°N, 1.7752°E)
Time: 14:10:50
(UTC+00:00)
Language:

Resurs 01 Rocket - Orbit

View from above orbital plane
View from above orbital plane
View from above satellite
View from above satellite

Ground track
Ground track

The orbit data is extracted from the following two-line orbital elements,

1 23343U 94074B   21125.89967694  .00000015  00000-0  94273-5 0  9994
2 23343  97.9501 181.1741 0006775 180.0403 352.8910 14.76877393426007
Epoch (UTC): 05 May 2021 21:35:32
Eccentricity: 0.0006775
inclination: 97.9501°
perigee height: 634 km
apogee height: 644 km
right ascension of ascending node: 181.1741°
argument of perigee: 180.0403°
revolutions per day: 14.76877393
mean anomaly at epoch: 352.8910°
orbit number at epoch: 42600

The dashed part of the orbit path shows where the satellite is in the earth's shadow,  

DLR